When you browse on this site, cookies collect data to enhance your experience and personalize the content and advertising you see.
Visit our Privacy Policy to learn more. By continuing to use the site, you agree to this use of cookies and data.
  • En España
  • Lista de países
  • Para 7 días
  • Temperatura del agua
  • El tiempo en el mapa
  • Informadores
  • user-avatar
    Iniciar sesión

    Tiempo cada hora Siva

    Hoy, 21 Octubre, Lunes

    Tiempo Temperatura Precipitaciones Viento Presión Humedad
    00:00 +27°C° 0 mm 3 mps 757 mmHg 46%
    01:00 +26°C° 0 mm 3 mps 757 mmHg 51%
    02:00 +25°C° 0 mm 3 mps 756 mmHg 55%
    03:00 +24°C° 0 mm 2 mps 756 mmHg 58%
    04:00 +24°C° 0 mm 2 mps 756 mmHg 61%
    05:00 +23°C° 0 mm 1 mps 756 mmHg 64%
    06:00 +24°C° 0 mm 1 mps 757 mmHg 61%
    07:00 +25°C° 0 mm 1 mps 757 mmHg 58%
    08:00 +26°C° 0 mm 1 mps 757 mmHg 55%
    09:00 +27°C° 0 mm 2 mps 757 mmHg 51%
    10:00 +29°C° 0 mm 2 mps 757 mmHg 47%
    11:00 +30°C° 0 mm 3 mps 757 mmHg 42%
    12:00 +31°C° 0 mm 3 mps 757 mmHg 40%
    13:00 +31°C° 0 mm 3 mps 756 mmHg 38%
    14:00 +33°C° 0 mm 4 mps 755 mmHg 36%
    15:00 +30°C° 0.1 mm 6 mps 755 mmHg 43%
    16:00 +28°C° 0.1 mm 7 mps 755 mmHg 51%
    17:00 +27°C° 0.1 mm 9 mps 755 mmHg 59%
    18:00 +26°C° 0.1 mm 8 mps 755 mmHg 63%
    19:00 +24°C° 0.1 mm 6 mps 756 mmHg 67%
    20:00 +23°C° 0.1 mm 5 mps 756 mmHg 71%
    21:00 +22°C° 0 mm 4 mps 756 mmHg 72%
    22:00 +22°C° 0 mm 3 mps 756 mmHg 73%
    23:00 +22°C° 0 mm 3 mps 757 mmHg 74%

    Mañana, 22 Octubre, Martes

    Tiempo Temperatura Precipitaciones Viento Presión Humedad
    00:00 +23°C° 0 mm 2 mps 756 mmHg 73%
    01:00 +23°C° 0 mm 2 mps 756 mmHg 73%
    02:00 +23°C° 0 mm 2 mps 755 mmHg 72%
    03:00 +21°C° 0 mm 2 mps 755 mmHg 74%
    04:00 +21°C° 0 mm 3 mps 755 mmHg 75%
    05:00 +21°C° 0 mm 3 mps 755 mmHg 77%
    06:00 +21°C° 0 mm 4 mps 756 mmHg 76%
    07:00 +22°C° 0 mm 4 mps 756 mmHg 75%
    08:00 +22°C° 0 mm 4 mps 756 mmHg 74%
    09:00 +25°C° 0 mm 4 mps 756 mmHg 64%
    10:00 +26°C° 0 mm 4 mps 756 mmHg 54%
    11:00 +28°C° 0 mm 4 mps 756 mmHg 45%
    12:00 +29°C° 0 mm 4 mps 756 mmHg 40%
    13:00 +30°C° 0 mm 4 mps 755 mmHg 35%
    14:00 +32°C° 0 mm 4 mps 755 mmHg 30%
    15:00 +30°C° 0 mm 4 mps 754 mmHg 29%
    16:00 +30°C° 0 mm 3 mps 754 mmHg 28%
    17:00 +29°C° 0 mm 3 mps 754 mmHg 27%
    18:00 +28°C° 0 mm 3 mps 754 mmHg 29%
    19:00 +27°C° 0 mm 3 mps 755 mmHg 32%
    20:00 +25°C° 0 mm 3 mps 755 mmHg 34%
    21:00 +25°C° 0 mm 3 mps 755 mmHg 36%
    22:00 +24°C° 0 mm 3 mps 755 mmHg 38%
    23:00 +24°C° 0 mm 3 mps 756 mmHg 40%

    Pasado mañana, 23 Octubre, Miércoles

    Tiempo Temperatura Precipitaciones Viento Presión Humedad
    00:00 +22°C° 0 mm 3 mps 755 mmHg 45%
    01:00 +21°C° 0 mm 3 mps 755 mmHg 51%
    02:00 +21°C° 0 mm 3 mps 755 mmHg 56%
    03:00 +20°C° 0 mm 2 mps 755 mmHg 63%
    04:00 +20°C° 0 mm 1 mps 755 mmHg 69%
    05:00 +19°C° 0 mm 1 mps 755 mmHg 76%
    06:00 +20°C° 0 mm 1 mps 755 mmHg 72%
    07:00 +21°C° 0 mm 1 mps 756 mmHg 67%
    08:00 +20°C° 0 mm 0 mps 756 mmHg 63%
    09:00 +22°C° 0 mm 0 mps 756 mmHg 56%
    10:00 +25°C° 0 mm 1 mps 756 mmHg 49%
    11:00 +27°C° 0 mm 1 mps 756 mmHg 42%
    12:00 +28°C° 0 mm 2 mps 756 mmHg 37%
    13:00 +29°C° 0 mm 2 mps 755 mmHg 33%
    14:00 +30°C° 0 mm 3 mps 754 mmHg 28%
    15:00 +29°C° 0 mm 4 mps 754 mmHg 29%
    16:00 +29°C° 0 mm 4 mps 754 mmHg 29%
    17:00 +28°C° 0 mm 4 mps 754 mmHg 30%
    18:00 +27°C° 0 mm 3 mps 755 mmHg 32%
    19:00 +25°C° 0 mm 3 mps 755 mmHg 35%
    20:00 +24°C° 0 mm 2 mps 755 mmHg 38%
    21:00 +24°C° 0 mm 3 mps 755 mmHg 41%
    22:00 +22°C° 0 mm 3 mps 755 mmHg 43%
    23:00 +22°C° 0 mm 3 mps 756 mmHg 46%

    24 Octubre, Jueves

    Tiempo Temperatura Precipitaciones Viento Presión Humedad
    00:00 +21°C° 0 mm 3 mps 756 mmHg 53%
    01:00 +21°C° 0 mm 3 mps 755 mmHg 60%
    02:00 +20°C° 0 mm 3 mps 755 mmHg 67%
    03:00 +20°C° 0 mm 2 mps 755 mmHg 71%
    04:00 +19°C° 0 mm 2 mps 755 mmHg 76%
    05:00 +20°C° 0 mm 1 mps 755 mmHg 80%
    06:00 +21°C° 0 mm 1 mps 756 mmHg 76%
    07:00 +21°C° 0 mm 1 mps 756 mmHg 71%
    08:00 +20°C° 0 mm 0 mps 756 mmHg 67%
    09:00 +22°C° 0 mm 0 mps 756 mmHg 60%
    10:00 +25°C° 0 mm 1 mps 756 mmHg 53%
    11:00 +27°C° 0 mm 1 mps 757 mmHg 46%
    12:00 +27°C° 0 mm 2 mps 756 mmHg 41%
    13:00 +28°C° 0 mm 3 mps 755 mmHg 37%
    14:00 +29°C° 0 mm 3 mps 755 mmHg 32%
    15:00 +29°C° 0 mm 3 mps 755 mmHg 32%
    16:00 +28°C° 0 mm 2 mps 755 mmHg 32%
    17:00 +28°C° 0 mm 2 mps 755 mmHg 32%
    18:00 +26°C° 0 mm 2 mps 755 mmHg 35%
    19:00 +24°C° 0 mm 1 mps 755 mmHg 38%
    20:00 +23°C° 0 mm 1 mps 756 mmHg 42%
    21:00 +22°C° 0 mm 1 mps 756 mmHg 43%
    22:00 +22°C° 0 mm 1 mps 756 mmHg 44%
    23:00 +21°C° 0 mm 1 mps 756 mmHg 45%

    25 Octubre, Viernes

    Tiempo Temperatura Precipitaciones Viento Presión Humedad
    00:00 +21°C° 0 mm 1 mps 756 mmHg 47%
    01:00 +21°C° 0 mm 1 mps 756 mmHg 48%
    02:00 +20°C° 0 mm 2 mps 756 mmHg 49%
    03:00 +20°C° 0 mm 2 mps 756 mmHg 54%
    04:00 +19°C° 0 mm 2 mps 756 mmHg 58%
    05:00 +19°C° 0 mm 2 mps 756 mmHg 63%
    06:00 +19°C° 0 mm 2 mps 756 mmHg 61%
    07:00 +20°C° 0 mm 2 mps 756 mmHg 60%
    08:00 +21°C° 0 mm 2 mps 757 mmHg 58%
    09:00 +24°C° 0 mm 2 mps 757 mmHg 51%
    10:00 +26°C° 0 mm 1 mps 757 mmHg 44%
    11:00 +27°C° 0 mm 1 mps 757 mmHg 38%
    12:00 +28°C° 0 mm 1 mps 757 mmHg 34%
    13:00 +29°C° 0 mm 1 mps 756 mmHg 31%
    14:00 +30°C° 0 mm 2 mps 756 mmHg 28%
    15:00 +29°C° 0 mm 2 mps 756 mmHg 29%
    16:00 +29°C° 0 mm 2 mps 756 mmHg 29%
    17:00 +28°C° 0 mm 3 mps 755 mmHg 30%
    18:00 +26°C° 0 mm 2 mps 756 mmHg 34%
    19:00 +25°C° 0 mm 2 mps 756 mmHg 39%
    20:00 +23°C° 0 mm 1 mps 756 mmHg 43%
    21:00 +23°C° 0 mm 1 mps 756 mmHg 45%
    22:00 +22°C° 0 mm 1 mps 756 mmHg 47%
    23:00 +22°C° 0 mm 1 mps 757 mmHg 48%

    26 Octubre, Sábado

    Tiempo Temperatura Precipitaciones Viento Presión Humedad
    00:00 +21°C° 0 mm 1 mps 756 mmHg 51%
    01:00 +21°C° 0 mm 1 mps 756 mmHg 53%
    02:00 +20°C° 0 mm 1 mps 756 mmHg 55%
    03:00 +20°C° 0 mm 1 mps 756 mmHg 56%
    04:00 +20°C° 0 mm 1 mps 756 mmHg 56%
    05:00 +19°C° 0 mm 2 mps 756 mmHg 57%
    06:00 +20°C° 0 mm 2 mps 757 mmHg 56%
    07:00 +20°C° 0 mm 2 mps 757 mmHg 56%
    08:00 +21°C° 0 mm 2 mps 758 mmHg 55%
    09:00 +24°C° 0 mm 2 mps 758 mmHg 50%
    10:00 +26°C° 0 mm 2 mps 758 mmHg 44%
    11:00 +28°C° 0 mm 2 mps 758 mmHg 39%
    12:00 +28°C° 0 mm 1 mps 757 mmHg 35%
    13:00 +29°C° 0 mm 1 mps 757 mmHg 31%
    14:00 +28°C° 0 mm 0 mps 756 mmHg 27%
    15:00 +29°C° 0 mm 1 mps 756 mmHg 28%
    16:00 +29°C° 0 mm 1 mps 756 mmHg 28%
    17:00 +28°C° 0 mm 2 mps 755 mmHg 29%
    18:00 +27°C° 0 mm 2 mps 756 mmHg 32%
    19:00 +25°C° 0 mm 2 mps 756 mmHg 35%
    20:00 +24°C° 0 mm 2 mps 756 mmHg 38%
    21:00 +23°C° 0 mm 2 mps 756 mmHg 40%
    22:00 +23°C° 0 mm 2 mps 756 mmHg 42%
    23:00 +23°C° 0 mm 2 mps 757 mmHg 44%

    27 Octubre, Domingo

    Tiempo Temperatura Precipitaciones Viento Presión Humedad
    00:00 +21°C° 0 mm 2 mps 757 mmHg 48%
    01:00 +20°C° 0 mm 2 mps 757 mmHg 51%
    02:00 +20°C° 0 mm 1 mps 756 mmHg 55%
    03:00 +19°C° 0 mm 2 mps 756 mmHg 55%
    04:00 +19°C° 0 mm 2 mps 756 mmHg 56%
    05:00 +19°C° 0 mm 3 mps 756 mmHg 57%
    06:00 +20°C° 0 mm 3 mps 757 mmHg 59%
    07:00 +20°C° 0 mm 3 mps 757 mmHg 61%
    08:00 +20°C° 0 mm 3 mps 757 mmHg 63%
    09:00 +23°C° 0 mm 2 mps 757 mmHg 55%
    10:00 +26°C° 0 mm 2 mps 757 mmHg 47%
    11:00 +28°C° 0 mm 2 mps 758 mmHg 40%
    12:00 +28°C° 0 mm 2 mps 757 mmHg 35%
    13:00 +29°C° 0 mm 2 mps 756 mmHg 31%
    14:00 +30°C° 0 mm 1 mps 756 mmHg 26%
    15:00 +29°C° 0 mm 2 mps 756 mmHg 27%
    16:00 +29°C° 0 mm 2 mps 756 mmHg 28%
    17:00 +28°C° 0 mm 3 mps 756 mmHg 29%
    18:00 +26°C° 0 mm 3 mps 756 mmHg 32%
    19:00 +25°C° 0 mm 2 mps 756 mmHg 36%
    20:00 +23°C° 0 mm 2 mps 757 mmHg 39%
    21:00 +23°C° 0 mm 2 mps 757 mmHg 42%
    22:00 +21°C° 0 mm 2 mps 757 mmHg 46%
    23:00 +21°C° 0 mm 1 mps 757 mmHg 49%
    Mostrar más